Location: ?????????
(53.2086°N, 54.0693°E)
Time: 01:57:00
(UTC+00:00)

USA 229 - Pass Details

Date: 08 December 2019
Orbit: 994 x 1218 km, 63.4° (Epoch: 20 January)

Event Time Altitude Azimuth Distance (km) Brightness Sun altitude
Rises 13:58:34 0° 300° (WNW) 3,856 7.3 -15.6°
Reaches altitude 10° 14:01:21 10° 307° (NW) 2,933 6.5 -16.0°
Maximum altitude 14:07:57 42° 18° (NNE) 1,551 4.3 -16.9°
Enters shadow 14:11:36 26° 72° (ENE) 2,105 4.6 -17.4°
